Simultaneous Nadir Overpasses (SNOs) Predictions

Prediction of SNOs near equator between AQUA and NPP Satellite Orbit:

Table of predicted SNOs near equator for the next 14.0 days since TLE Epoch: 2/23/2018
Index Date (AQUA) Time (AQUA) AQUA Lat,Lon Date (NPP) Time (NPP) NPP Lat,Lon Distance(km) Time Diff (sec)
1 02/25/2018 17:14:59 -3.01, 124.87 02/25/2018 17:05:52 -2.90, 124.31 63.09 547
2 02/25/2018 18:03:15 -1.54, -66.55 02/25/2018 17:55:23 -1.71, -67.37 93.18 472
3 02/28/2018 08:43:00 6.18, 72.41 02/28/2018 08:33:00 6.16, 72.03 42.67 600
4 02/28/2018 09:31:09 -1.78,-118.99 02/28/2018 09:22:23 -1.61,-119.62 72.68 526
5 03/03/2018 00:59:10 4.96,-171.45 03/03/2018 00:49:31 4.88,-171.91 51.77 579
6 03/03/2018 01:47:17 -0.43, -2.82 03/03/2018 01:38:53 -0.27, -3.54 82.10 504
7 03/05/2018 17:15:17 3.62, -55.28 03/05/2018 17:06:00 3.53, -55.82 61.40 557
8 03/05/2018 18:03:24 0.91, 113.35 03/05/2018 17:55:22 1.08, 112.54 91.57 482
9 03/08/2018 08:48:57 -27.77,-112.51 03/08/2018 08:38:57 -27.78,-113.13 61.39 600
10 03/08/2018 09:31:26 2.35, 60.88 03/08/2018 09:22:30 2.19, 60.26 71.03 536




NCC Satellite Simultaneous Nadir Overpasses (SNOs) Prediction Service
